Time,TemperatureF,DewpointF,PressureIn,WindDirection,WindDirectionDegrees,WindSpeedMPH,WindSpeedGustMPH,Humidity,HourlyPrecipIn,Conditions,Clouds,dailyrainin,SoftwareType,DateUTC
2013-04-26 00:02:00,56.2,38.3,30.01,SSW,206,11.0,11.0,51,0.00,,,0.00,VWS V14.00,2013-04-26 05:02:00,
2013-04-26 00:07:00,56.1,38.2,30.01,SSW,206,11.0,11.0,51,0.00,,,0.00,VWS V14.00,2013-04-26 05:07:00,
2013-04-26 00:12:00,56.1,38.2,30.01,SSW,206,11.0,11.0,51,0.00,,,0.00,VWS V14.00,2013-04-26 05:12:00,
2013-04-26 00:17:00,56.0,38.2,30.01,SSW,206,11.0,11.0,51,0.00,,,0.00,VWS V14.00,2013-04-26 05:17:00,
2013-04-26 00:22:00,55.9,38.5,30.01,SSW,206,11.0,11.0,52,0.00,,,0.00,VWS V14.00,2013-04-26 05:22:00,
2013-04-26 00:27:00,55.7,38.4,30.01,SSW,206,11.0,11.0,52,0.00,,,0.00,VWS V14.00,2013-04-26 05:27:00,
2013-04-26 00:32:00,55.6,38.3,30.01,SSW,206,11.0,11.0,52,0.00,,,0.00,VWS V14.00,2013-04-26 05:32:00,
2013-04-26 00:37:00,55.5,38.7,30.01,SSW,206,11.0,11.0,53,0.00,,,0.00,VWS V14.00,2013-04-26 05:37:00,
2013-04-26 00:42:00,55.5,38.7,30.01,SSW,206,11.0,11.0,53,0.00,,,0.00,VWS V14.00,2013-04-26 05:42:00,
2013-04-26 00:47:00,55.5,38.7,30.02,SSW,206,11.0,11.0,53,0.00,,,0.00,VWS V14.00,2013-04-26 05:47:00,
2013-04-26 00:52:00,55.5,38.7,30.02,SSW,206,11.0,11.0,53,0.00,,,0.00,VWS V14.00,2013-04-26 05:52:00,
2013-04-26 00:57:00,55.6,38.8,30.02,SSW,206,11.0,11.0,53,0.00,,,0.00,VWS V14.00,2013-04-26 05:57:00,
2013-04-26 01:02:00,55.7,38.8,30.02,SSW,206,11.0,11.0,53,0.00,,,0.00,VWS V14.00,2013-04-26 06:02:00,
2013-04-26 01:07:00,55.9,39.0,30.02,SSW,206,11.0,11.0,53,0.00,,,0.00,VWS V14.00,2013-04-26 06:07:00,
2013-04-26 01:12:00,56.0,39.1,30.02,SSW,206,11.0,11.0,53,0.00,,,0.00,VWS V14.00,2013-04-26 06:12:00,
2013-04-26 01:18:00,56.0,38.6,30.02,SSW,206,11.0,11.0,52,0.00,,,0.00,VWS V14.00,2013-04-26 06:18:00,
2013-04-26 01:23:00,56.0,39.1,30.02,SSW,206,11.0,11.0,53,0.00,,,0.00,VWS V14.00,2013-04-26 06:23:00,
2013-04-26 01:28:00,56.0,39.1,30.02,SSW,206,11.0,11.0,53,0.00,,,0.00,VWS V14.00,2013-04-26 06:28:00,
2013-04-26 01:33:00,55.9,39.0,30.02,SSW,206,11.0,11.0,53,0.00,,,0.00,VWS V14.00,2013-04-26 06:33:00,
2013-04-26 01:38:00,55.7,38.8,30.01,SSW,206,11.0,11.0,53,0.00,,,0.00,VWS V14.00,2013-04-26 06:38:00,
2013-04-26 01:43:00,55.5,38.7,30.01,SSW,206,11.0,11.0,53,0.00,,,0.00,VWS V14.00,2013-04-26 06:43:00,
2013-04-26 01:48:00,55.3,39.0,30.01,SSW,206,11.0,11.0,54,0.00,,,0.00,VWS V14.00,2013-04-26 06:48:00,
2013-04-26 01:53:00,55.1,38.8,30.01,SSW,206,11.0,11.0,54,0.00,,,0.00,VWS V14.00,2013-04-26 06:53:00,
2013-04-26 01:58:00,54.8,39.0,30.01,SSW,206,11.0,11.0,55,0.00,,,0.00,VWS V14.00,2013-04-26 06:58:00,
2013-04-26 02:03:00,54.6,38.8,30.01,SSW,206,11.0,11.0,55,0.00,,,0.00,VWS V14.00,2013-04-26 07:03:00,
2013-04-26 02:08:00,54.4,39.0,30.00,SSW,206,11.0,11.0,56,0.00,,,0.00,VWS V14.00,2013-04-26 07:08:00,
2013-04-26 02:13:00,54.2,39.3,30.00,SSW,206,11.0,11.0,57,0.00,,,0.00,VWS V14.00,2013-04-26 07:13:00,
2013-04-26 02:18:00,54.1,39.2,30.00,SSW,206,11.0,11.0,57,0.00,,,0.00,VWS V14.00,2013-04-26 07:18:00,
2013-04-26 02:23:00,53.9,39.5,30.00,SSW,206,11.0,11.0,58,0.00,,,0.00,VWS V14.00,2013-04-26 07:23:00,
2013-04-26 02:28:00,53.7,39.3,30.00,SSW,206,11.0,11.0,58,0.00,,,0.00,VWS V14.00,2013-04-26 07:28:00,
2013-04-26 02:33:00,53.5,39.1,30.00,SSW,206,11.0,11.0,58,0.00,,,0.00,VWS V14.00,2013-04-26 07:33:00,
2013-04-26 02:38:00,53.3,39.3,30.00,SSW,206,11.0,11.0,59,0.00,,,0.00,VWS V14.00,2013-04-26 07:38:00,
2013-04-26 02:43:00,53.1,39.6,30.00,SSW,206,11.0,11.0,60,0.00,,,0.00,VWS V14.00,2013-04-26 07:43:00,
2013-04-26 02:48:00,52.9,39.4,29.99,SSW,206,11.0,11.0,60,0.00,,,0.00,VWS V14.00,2013-04-26 07:48:00,
2013-04-26 02:53:00,52.7,39.2,29.99,SSW,206,11.0,11.0,60,0.00,,,0.00,VWS V14.00,2013-04-26 07:53:00,
2013-04-26 02:58:00,52.7,39.6,29.99,SSW,206,11.0,11.0,61,0.00,,,0.00,VWS V14.00,2013-04-26 07:58:00,
2013-04-26 03:03:00,52.6,39.5,29.99,SSW,206,11.0,11.0,61,0.00,,,0.00,VWS V14.00,2013-04-26 08:03:00,
2013-04-26 03:08:00,52.7,39.2,29.99,SSW,206,11.0,11.0,60,0.00,,,0.00,VWS V14.00,2013-04-26 08:08:00,
2013-04-26 03:13:00,52.8,39.3,29.99,SSW,206,11.0,11.0,60,0.00,,,0.00,VWS V14.00,2013-04-26 08:13:00,
2013-04-26 03:18:00,52.9,39.0,29.99,SSW,206,11.0,11.0,59,0.00,,,0.00,VWS V14.00,2013-04-26 08:18:00,
2013-04-26 03:23:00,53.0,39.1,29.99,SSW,206,11.0,11.0,59,0.00,,,0.00,VWS V14.00,2013-04-26 08:23:00,
2013-04-26 03:28:00,53.0,39.1,29.98,SSW,206,11.0,11.0,59,0.00,,,0.00,VWS V14.00,2013-04-26 08:28:00,
2013-04-26 03:33:00,53.1,38.7,29.98,SSW,206,11.0,11.0,58,0.00,,,0.00,VWS V14.00,2013-04-26 08:33:00,
2013-04-26 03:38:00,53.1,38.7,29.98,SSW,206,11.0,11.0,58,0.00,,,0.00,VWS V14.00,2013-04-26 08:38:00,
2013-04-26 03:43:00,53.1,38.3,29.98,SSW,206,11.0,11.0,57,0.00,,,0.00,VWS V14.00,2013-04-26 08:43:00,
2013-04-26 03:48:00,53.1,38.3,29.98,SSW,206,11.0,11.0,57,0.00,,,0.00,VWS V14.00,2013-04-26 08:48:00,
2013-04-26 03:53:00,53.0,38.2,29.98,SSW,206,11.0,11.0,57,0.00,,,0.00,VWS V14.00,2013-04-26 08:53:00,
2013-04-26 03:58:00,53.1,38.3,29.98,SSW,206,11.0,11.0,57,0.00,,,0.00,VWS V14.00,2013-04-26 08:58:00,
2013-04-26 04:04:00,53.1,38.3,29.97,SSW,206,11.0,11.0,57,0.00,,,0.00,VWS V14.00,2013-04-26 09:04:00,
2013-04-26 04:09:00,53.2,37.9,29.97,SSW,206,11.0,11.0,56,0.00,,,0.00,VWS V14.00,2013-04-26 09:09:00,
2013-04-26 04:14:00,53.1,37.8,29.97,SSW,206,11.0,11.0,56,0.00,,,0.00,VWS V14.00,2013-04-26 09:14:00,
2013-04-26 04:19:00,53.0,37.7,29.97,SSW,206,11.0,11.0,56,0.00,,,0.00,VWS V14.00,2013-04-26 09:19:00,
2013-04-26 04:24:00,53.0,37.7,29.97,SSW,206,11.0,11.0,56,0.00,,,0.00,VWS V14.00,2013-04-26 09:24:00,
2013-04-26 04:29:00,52.9,37.7,29.97,SSW,206,11.0,11.0,56,0.00,,,0.00,VWS V14.00,2013-04-26 09:29:00,
2013-04-26 04:34:00,52.8,37.5,29.97,SSW,206,11.0,11.0,56,0.00,,,0.00,VWS V14.00,2013-04-26 09:34:00,
2013-04-26 04:39:00,52.8,37.5,29.97,SSW,206,11.0,11.0,56,0.00,,,0.00,VWS V14.00,2013-04-26 09:39:00,
2013-04-26 04:44:00,52.8,37.5,29.97,SSW,206,11.0,11.0,56,0.00,,,0.00,VWS V14.00,2013-04-26 09:44:00,
2013-04-26 04:49:00,52.8,37.5,29.97,SSW,206,11.0,11.0,56,0.00,,,0.00,VWS V14.00,2013-04-26 09:49:00,
2013-04-26 04:54:00,52.8,37.5,29.97,SSW,206,11.0,11.0,56,0.00,,,0.00,VWS V14.00,2013-04-26 09:54:00,
2013-04-26 04:59:00,52.8,37.5,29.96,SSW,206,11.0,11.0,56,0.00,,,0.00,VWS V14.00,2013-04-26 09:59:00,
2013-04-26 05:04:00,52.7,37.5,29.96,SSW,206,11.0,11.0,56,0.00,,,0.00,VWS V14.00,2013-04-26 10:04:00,
2013-04-26 05:09:00,52.6,37.4,29.96,SSW,206,11.0,11.0,56,0.00,,,0.00,VWS V14.00,2013-04-26 10:09:00,
2013-04-26 05:14:00,52.6,37.8,29.97,SSW,206,11.0,11.0,57,0.00,,,0.00,VWS V14.00,2013-04-26 10:14:00,
2013-04-26 05:19:00,52.5,37.7,29.97,SSW,206,11.0,11.0,57,0.00,,,0.00,VWS V14.00,2013-04-26 10:19:00,
2013-04-26 05:24:00,52.4,37.6,29.96,SSW,206,11.0,11.0,57,0.00,,,0.00,VWS V14.00,2013-04-26 10:24:00,
2013-04-26 05:29:00,52.4,37.6,29.96,SSW,206,11.0,11.0,57,0.00,,,0.00,VWS V14.00,2013-04-26 10:29:00,
2013-04-26 05:34:00,52.3,37.5,29.96,SSW,206,11.0,11.0,57,0.00,,,0.00,VWS V14.00,2013-04-26 10:34:00,
2013-04-26 05:39:00,52.2,37.4,29.96,SSW,206,11.0,11.0,57,0.00,,,0.00,VWS V14.00,2013-04-26 10:39:00,
2013-04-26 05:44:00,52.1,37.8,29.96,SSW,206,11.0,11.0,58,0.00,,,0.00,VWS V14.00,2013-04-26 10:44:00,
2013-04-26 05:49:00,51.9,37.6,29.96,SSW,206,11.0,11.0,58,0.00,,,0.00,VWS V14.00,2013-04-26 10:49:00,
2013-04-26 05:54:00,51.8,37.5,29.96,SSW,206,11.0,11.0,58,0.00,,,0.00,VWS V14.00,2013-04-26 10:54:00,
2013-04-26 05:59:00,51.8,37.9,29.96,SSW,206,11.0,11.0,59,0.00,,,0.00,VWS V14.00,2013-04-26 10:59:00,
2013-04-26 06:04:00,51.7,38.7,29.96,SSW,206,11.0,11.0,61,0.00,,,0.00,VWS V14.00,2013-04-26 11:04:00,
2013-04-26 06:09:00,51.5,37.7,29.96,SSW,206,11.0,11.0,59,0.00,,,0.00,VWS V14.00,2013-04-26 11:09:00,
2013-04-26 06:14:00,51.5,37.7,29.96,SSW,206,11.0,11.0,59,0.00,,,0.00,VWS V14.00,2013-04-26 11:14:00,
2013-04-26 06:19:00,51.4,37.6,29.97,SSW,206,11.0,11.0,59,0.00,,,0.00,VWS V14.00,2013-04-26 11:19:00,
2013-04-26 06:24:00,51.4,38.0,29.97,SSW,206,11.0,11.0,60,0.00,,,0.00,VWS V14.00,2013-04-26 11:24:00,
2013-04-26 06:29:00,51.4,38.0,29.96,SSW,206,11.0,11.0,60,0.00,,,0.00,VWS V14.00,2013-04-26 11:29:00,
2013-04-26 06:34:00,51.4,38.0,29.96,SSW,206,11.0,11.0,60,0.00,,,0.00,VWS V14.00,2013-04-26 11:34:00,
2013-04-26 06:39:00,51.4,38.0,29.96,SSW,206,11.0,11.0,60,0.00,,,0.00,VWS V14.00,2013-04-26 11:39:00,
2013-04-26 06:44:00,51.4,38.0,29.97,SSW,206,11.0,11.0,60,0.00,,,0.00,VWS V14.00,2013-04-26 11:44:00,
2013-04-26 06:49:00,51.4,38.0,29.97,SSW,206,11.0,11.0,60,0.00,,,0.00,VWS V14.00,2013-04-26 11:49:00,
2013-04-26 06:54:00,51.4,38.0,29.97,SSW,206,11.0,11.0,60,0.00,,,0.00,VWS V14.00,2013-04-26 11:54:00,
2013-04-26 06:59:00,51.4,38.0,29.97,SSW,206,11.0,11.0,60,0.00,,,0.00,VWS V14.00,2013-04-26 11:59:00,
2013-04-26 07:04:00,51.7,38.3,29.97,SSW,206,11.0,11.0,60,0.00,,,0.00,VWS V14.00,2013-04-26 12:04:00,
2013-04-26 07:09:00,51.7,38.3,29.98,SSW,206,11.0,11.0,60,0.00,,,0.00,VWS V14.00,2013-04-26 12:09:00,
2013-04-26 07:14:00,51.9,38.0,29.98,SSW,206,11.0,11.0,59,0.00,,,0.00,VWS V14.00,2013-04-26 12:14:00,
2013-04-26 07:19:00,52.0,38.6,29.98,SSW,206,11.0,11.0,60,0.00,,,0.00,VWS V14.00,2013-04-26 12:19:00,
2013-04-26 07:25:00,52.1,38.7,29.98,SSW,206,11.0,11.0,60,0.00,,,0.00,VWS V14.00,2013-04-26 12:25:00,
2013-04-26 07:30:00,52.1,38.7,29.99,SSW,206,11.0,11.0,60,0.00,,,0.00,VWS V14.00,2013-04-26 12:30:00,
2013-04-26 07:35:00,52.1,38.7,29.99,SSW,206,11.0,11.0,60,0.00,,,0.00,VWS V14.00,2013-04-26 12:35:00,
2013-04-26 07:40:00,52.2,38.8,29.99,SSW,206,11.0,11.0,60,0.00,,,0.00,VWS V14.00,2013-04-26 12:40:00,
2013-04-26 07:45:00,52.4,38.9,29.99,SSW,206,11.0,11.0,60,0.00,,,0.00,VWS V14.00,2013-04-26 12:45:00,
2013-04-26 07:50:00,52.6,39.1,29.99,South,188,5.0,14.0,60,0.00,,,0.00,VWS V14.00,2013-04-26 12:50:00,
2013-04-26 07:55:00,52.6,39.1,30.00,SSW,205,11.0,14.0,60,0.00,,,0.00,VWS V14.00,2013-04-26 12:55:00,
2013-04-26 08:00:00,52.7,39.6,30.00,SSW,197,5.0,11.0,61,0.00,,,0.00,VWS V14.00,2013-04-26 13:00:00,
2013-04-26 08:05:00,52.8,39.7,30.00,SSW,205,6.0,14.0,61,0.00,,,0.00,VWS V14.00,2013-04-26 13:05:00,
2013-04-26 08:10:00,52.9,39.4,30.00,SW,216,10.0,16.0,60,0.00,,,0.00,VWS V14.00,2013-04-26 13:10:00,
2013-04-26 08:15:00,53.1,40.0,30.00,SSW,205,10.0,16.0,61,0.00,,,0.00,VWS V14.00,2013-04-26 13:15:00,
2013-04-26 08:20:00,53.2,40.1,30.01,SW,216,4.0,16.0,61,0.00,,,0.00,VWS V14.00,2013-04-26 13:20:00,
2013-04-26 08:25:00,53.5,40.4,30.01,SW,223,8.0,16.0,61,0.00,,,0.00,VWS V14.00,2013-04-26 13:25:00,
2013-04-26 08:30:00,53.8,40.7,30.01,SW,221,9.0,10.0,61,0.00,,,0.00,VWS V14.00,2013-04-26 13:30:00,
2013-04-26 08:35:00,53.9,40.8,30.01,SSW,213,7.0,11.0,61,0.00,,,0.00,VWS V14.00,2013-04-26 13:35:00,
2013-04-26 08:40:00,53.9,40.8,30.01,SSW,211,8.0,11.0,61,0.00,,,0.00,VWS V14.00,2013-04-26 13:40:00,
2013-04-26 08:45:00,54.1,41.4,30.01,SW,218,7.0,11.0,62,0.00,,,0.00,VWS V14.00,2013-04-26 13:45:00,
2013-04-26 08:50:00,54.5,41.8,30.01,SSW,196,7.0,11.0,62,0.00,,,0.00,VWS V14.00,2013-04-26 13:50:00,
2013-04-26 08:55:00,55.0,41.8,30.01,SSW,211,7.0,14.0,61,0.00,,,0.00,VWS V14.00,2013-04-26 13:55:00,
2013-04-26 09:00:00,55.4,42.2,30.01,SSW,213,5.0,11.0,61,0.00,,,0.00,VWS V14.00,2013-04-26 14:00:00,
2013-04-26 09:05:00,55.9,42.7,30.01,SW,215,6.0,14.0,61,0.00,,,0.00,VWS V14.00,2013-04-26 14:05:00,
2013-04-26 09:10:00,56.4,43.1,30.02,SSW,198,9.0,14.0,61,0.00,,,0.00,VWS V14.00,2013-04-26 14:10:00,
2013-04-26 09:15:00,56.9,43.2,30.02,SW,220,6.0,17.0,60,0.00,,,0.00,VWS V14.00,2013-04-26 14:15:00,
2013-04-26 09:20:00,57.3,43.5,30.01,SSW,210,8.0,19.0,60,0.00,,,0.00,VWS V14.00,2013-04-26 14:20:00,
2013-04-26 09:25:00,57.7,44.4,30.01,SSW,209,9.0,19.0,61,0.00,,,0.00,VWS V14.00,2013-04-26 14:25:00,
2013-04-26 09:30:00,58.1,43.9,30.02,SSW,207,12.0,17.0,59,0.00,,,0.00,VWS V14.00,2013-04-26 14:30:00,
2013-04-26 09:35:00,58.1,43.9,30.01,SSW,197,8.0,19.0,59,0.00,,,0.00,VWS V14.00,2013-04-26 14:35:00,
2013-04-26 09:40:00,58.0,44.2,30.02,SSW,207,8.0,20.0,60,0.00,,,0.00,VWS V14.00,2013-04-26 14:40:00,
2013-04-26 09:45:00,58.0,44.2,30.02,SW,219,5.0,20.0,60,0.00,,,0.00,VWS V14.00,2013-04-26 14:45:00,
2013-04-26 09:50:00,58.0,44.2,30.01,SSW,196,13.0,20.0,60,0.00,,,0.00,VWS V14.00,2013-04-26 14:50:00,
2013-04-26 09:55:00,58.1,44.7,30.01,SW,219,11.0,20.0,61,0.00,,,0.00,VWS V14.00,2013-04-26 14:55:00,
2013-04-26 10:00:00,58.5,44.7,30.02,SSW,211,7.0,16.0,60,0.00,,,0.00,VWS V14.00,2013-04-26 15:00:00,
2013-04-26 10:05:00,58.9,44.6,30.02,SSW,200,7.0,21.0,59,0.00,,,0.00,VWS V14.00,2013-04-26 15:05:00,
2013-04-26 10:10:00,59.1,44.8,30.01,SW,223,9.0,21.0,59,0.00,,,0.00,VWS V14.00,2013-04-26 15:10:00,
2013-04-26 10:15:00,59.3,45.0,30.01,SW,232,10.0,22.0,59,0.00,,,0.00,VWS V14.00,2013-04-26 15:15:00,
2013-04-26 10:20:00,59.5,45.2,30.01,SW,221,10.0,22.0,59,0.00,,,0.00,VWS V14.00,2013-04-26 15:20:00,
2013-04-26 10:25:00,59.6,45.3,30.01,SSW,192,4.0,22.0,59,0.00,,,0.00,VWS V14.00,2013-04-26 15:25:00,
2013-04-26 10:30:00,59.8,45.5,30.02,SSW,210,14.0,15.0,59,0.00,,,0.00,VWS V14.00,2013-04-26 15:30:00,
2013-04-26 10:35:00,59.8,45.5,30.02,SSW,202,8.0,20.0,59,0.00,,,0.00,VWS V14.00,2013-04-26 15:35:00,
2013-04-26 10:40:00,59.7,45.4,30.02,SW,224,10.0,20.0,59,0.00,,,0.00,VWS V14.00,2013-04-26 15:40:00,
2013-04-26 10:45:00,59.9,45.5,30.02,SSW,210,14.0,20.0,59,0.00,,,0.00,VWS V14.00,2013-04-26 15:45:00,
2013-04-26 10:50:00,60.2,45.4,30.02,SW,224,14.0,22.0,58,0.00,,,0.00,VWS V14.00,2013-04-26 15:50:00,
2013-04-26 10:55:00,60.3,45.9,30.02,SW,214,8.0,22.0,59,0.00,,,0.00,VWS V14.00,2013-04-26 15:55:00,
2013-04-26 11:00:00,60.8,46.4,30.02,SW,227,16.0,16.0,59,0.00,,,0.00,VWS V14.00,2013-04-26 16:00:00,
2013-04-26 11:05:00,61.6,47.2,30.02,SSW,194,9.0,18.0,59,0.00,,,0.00,VWS V14.00,2013-04-26 16:05:00,
2013-04-26 11:10:00,62.4,47.9,30.02,WSW,242,7.0,18.0,59,0.00,,,0.00,VWS V14.00,2013-04-26 16:10:00,
2013-04-26 11:15:00,63.0,47.5,30.02,SW,234,10.0,18.0,57,0.00,,,0.00,VWS V14.00,2013-04-26 16:15:00,
2013-04-26 11:20:00,63.4,47.9,30.02,South,189,10.0,18.0,57,0.00,,,0.00,VWS V14.00,2013-04-26 16:20:00,
2013-04-26 11:25:00,64.0,47.0,30.02,SSW,196,7.0,18.0,54,0.00,,,0.00,VWS V14.00,2013-04-26 16:25:00,
2013-04-26 11:30:00,64.4,47.9,30.02,SSW,207,6.0,11.0,55,0.00,,,0.00,VWS V14.00,2013-04-26 16:30:00,
2013-04-26 11:35:00,65.1,47.1,30.02,SSW,211,8.0,14.0,52,0.00,,,0.00,VWS V14.00,2013-04-26 16:35:00,
2013-04-26 11:41:00,65.3,46.2,30.02,SSW,210,9.0,17.0,50,0.00,,,0.00,VWS V14.00,2013-04-26 16:41:00,
2013-04-26 11:46:00,65.1,46.5,30.02,SSW,213,12.0,20.0,51,0.00,,,0.00,VWS V14.00,2013-04-26 16:46:00,
2013-04-26 11:51:00,64.9,45.8,30.02,SW,217,5.0,20.0,50,0.00,,,0.00,VWS V14.00,2013-04-26 16:51:00,
2013-04-26 11:56:00,64.8,46.3,30.02,SW,229,4.0,20.0,51,0.00,,,0.00,VWS V14.00,2013-04-26 16:56:00,
2013-04-26 12:01:00,64.7,46.2,30.02,SW,227,7.0,14.0,51,0.00,,,0.00,VWS V14.00,2013-04-26 17:01:00,
2013-04-26 12:06:00,64.7,46.2,30.02,WSW,238,8.0,17.0,51,0.00,,,0.00,VWS V14.00,2013-04-26 17:06:00,
2013-04-26 12:11:00,64.9,46.4,30.02,SW,215,6.0,18.0,51,0.00,,,0.00,VWS V14.00,2013-04-26 17:11:00,
2013-04-26 12:16:00,65.4,46.8,30.02,SSW,200,11.0,18.0,51,0.00,,,0.00,VWS V14.00,2013-04-26 17:16:00,
2013-04-26 12:21:00,65.6,47.0,30.02,SSW,209,4.0,18.0,51,0.00,,,0.00,VWS V14.00,2013-04-26 17:21:00,
2013-04-26 12:26:00,65.9,46.8,30.01,SSW,213,7.0,18.0,50,0.00,,,0.00,VWS V14.00,2013-04-26 17:26:00,
2013-04-26 12:31:00,66.0,46.8,30.02,SW,228,6.0,16.0,50,0.00,,,0.00,VWS V14.00,2013-04-26 17:31:00,
2013-04-26 12:36:00,66.2,47.0,30.01,SSW,196,7.0,17.0,50,0.00,,,0.00,VWS V14.00,2013-04-26 17:36:00,
2013-04-26 12:41:00,66.2,47.0,30.01,SSW,204,8.0,17.0,50,0.00,,,0.00,VWS V14.00,2013-04-26 17:41:00,
2013-04-26 12:46:00,66.1,47.5,30.01,South,189,8.0,17.0,51,0.00,,,0.00,VWS V14.00,2013-04-26 17:46:00,
2013-04-26 12:51:00,66.3,47.7,30.01,SSW,207,10.0,17.0,51,0.00,,,0.00,VWS V14.00,2013-04-26 17:51:00,
2013-04-26 12:56:00,66.6,47.4,30.01,SW,225,8.0,17.0,50,0.00,,,0.00,VWS V14.00,2013-04-26 17:56:00,
2013-04-26 13:01:00,66.6,47.4,30.01,SSW,205,6.0,9.0,50,0.00,,,0.00,VWS V14.00,2013-04-26 18:01:00,
2013-04-26 13:06:00,66.5,46.8,30.01,SW,225,6.0,13.0,49,0.00,,,0.00,VWS V14.00,2013-04-26 18:06:00,
2013-04-26 13:11:00,66.6,46.9,30.01,SSW,198,4.0,14.0,49,0.00,,,0.00,VWS V14.00,2013-04-26 18:11:00,
2013-04-26 13:16:00,66.8,46.5,30.01,South,182,5.0,14.0,48,0.00,,,0.00,VWS V14.00,2013-04-26 18:16:00,
2013-04-26 13:21:00,67.0,46.7,30.01,SSW,204,4.0,14.0,48,0.00,,,0.00,VWS V14.00,2013-04-26 18:21:00,
2013-04-26 13:26:00,67.4,47.0,30.01,SSW,213,5.0,14.0,48,0.00,,,0.00,VWS V14.00,2013-04-26 18:26:00,
2013-04-26 13:31:00,67.8,48.0,30.01,WSW,240,1.0,8.0,49,0.00,,,0.00,VWS V14.00,2013-04-26 18:31:00,
2013-04-26 13:36:00,68.2,47.8,30.00,SW,223,2.0,11.0,48,0.00,,,0.00,VWS V14.00,2013-04-26 18:36:00,
2013-04-26 13:41:00,68.8,47.8,30.00,SSW,210,6.0,11.0,47,0.00,,,0.00,VWS V14.00,2013-04-26 18:41:00,
2013-04-26 13:46:00,69.1,47.5,30.00,SSW,213,6.0,12.0,46,0.00,,,0.00,VWS V14.00,2013-04-26 18:46:00,
2013-04-26 13:51:00,69.2,47.0,30.01,SW,230,3.0,13.0,45,0.00,,,0.00,VWS V14.00,2013-04-26 18:51:00,
2013-04-26 13:56:00,69.2,47.6,30.00,South,190,9.0,13.0,46,0.00,,,0.00,VWS V14.00,2013-04-26 18:56:00,
2013-04-26 14:01:00,69.2,48.1,30.01,SSW,213,7.0,11.0,47,0.00,,,0.00,VWS V14.00,2013-04-26 19:01:00,
2013-04-26 14:06:00,69.2,47.6,30.01,SW,221,12.0,12.0,46,0.00,,,0.00,VWS V14.00,2013-04-26 19:06:00,
2013-04-26 14:11:00,69.1,46.9,30.00,SSW,211,3.0,13.0,45,0.00,,,0.00,VWS V14.00,2013-04-26 19:11:00,
2013-04-26 14:16:00,69.0,47.4,30.00,SW,222,7.0,13.0,46,0.00,,,0.00,VWS V14.00,2013-04-26 19:16:00,
2013-04-26 14:21:00,69.0,46.2,30.00,SW,214,7.0,13.0,44,0.00,,,0.00,VWS V14.00,2013-04-26 19:21:00,
2013-04-26 14:26:00,69.2,47.6,30.00,SW,219,0.0,13.0,46,0.00,,,0.00,VWS V14.00,2013-04-26 19:26:00,
2013-04-26 14:31:00,70.1,48.4,30.00,SW,218,8.0,8.0,46,0.00,,,0.00,VWS V14.00,2013-04-26 19:31:00,
2013-04-26 14:36:00,70.7,47.1,30.00,SW,229,5.0,10.0,43,0.00,,,0.00,VWS V14.00,2013-04-26 19:36:00,
2013-04-26 14:41:00,70.7,47.1,30.00,SW,227,0.0,11.0,43,0.00,,,0.00,VWS V14.00,2013-04-26 19:41:00,
2013-04-26 14:46:00,70.7,47.1,30.00,SW,225,0.0,11.0,43,0.00,,,0.00,VWS V14.00,2013-04-26 19:46:00,
2013-04-26 14:51:00,70.7,47.1,30.00,WSW,238,0.0,11.0,43,0.00,,,0.00,VWS V14.00,2013-04-26 19:51:00,
2013-04-26 14:56:00,71.3,48.3,30.00,SW,233,0.0,11.0,44,0.00,,,0.00,VWS V14.00,2013-04-26 19:56:00,
2013-04-26 15:01:00,72.0,48.3,30.00,SW,233,0.0,0.0,43,0.00,,,0.00,VWS V14.00,2013-04-26 20:01:00,
2013-04-26 15:06:00,72.9,50.3,30.00,SW,233,0.0,0.0,45,0.00,,,0.00,VWS V14.00,2013-04-26 20:06:00,
2013-04-26 15:11:00,73.5,48.4,30.00,WNW,296,4.0,8.0,41,0.00,,,0.00,VWS V14.00,2013-04-26 20:11:00,
2013-04-26 15:16:00,73.4,47.6,30.00,WNW,295,0.0,8.0,40,0.00,,,0.00,VWS V14.00,2013-04-26 20:16:00,
2013-04-26 15:21:00,72.6,47.6,30.00,SW,223,12.0,14.0,41,0.00,,,0.00,VWS V14.00,2013-04-26 20:21:00,
2013-04-26 15:26:00,71.4,47.8,30.00,SW,226,6.0,14.0,43,0.00,,,0.00,VWS V14.00,2013-04-26 20:26:00,
2013-04-26 15:31:00,70.7,47.7,30.00,SW,216,4.0,10.0,44,0.00,,,0.00,VWS V14.00,2013-04-26 20:31:00,
2013-04-26 15:36:00,70.4,48.1,30.00,SSW,198,6.0,10.0,45,0.00,,,0.00,VWS V14.00,2013-04-26 20:36:00,
2013-04-26 15:42:00,70.5,48.2,30.00,SSW,209,6.0,12.0,45,0.00,,,0.00,VWS V14.00,2013-04-26 20:42:00,
2013-04-26 15:47:00,70.6,48.2,30.00,SSW,209,7.0,12.0,45,0.00,,,0.00,VWS V14.00,2013-04-26 20:47:00,
2013-04-26 15:52:00,70.2,48.5,30.00,SSW,205,4.0,12.0,46,0.00,,,0.00,VWS V14.00,2013-04-26 20:52:00,
2013-04-26 15:57:00,70.2,49.6,30.00,SSW,202,9.0,15.0,48,0.00,,,0.00,VWS V14.00,2013-04-26 20:57:00,
2013-04-26 16:02:00,70.3,48.6,30.00,South,187,3.0,11.0,46,0.00,,,0.00,VWS V14.00,2013-04-26 21:02:00,
2013-04-26 16:07:00,70.2,47.9,30.00,SSW,199,0.0,11.0,45,0.00,,,0.00,VWS V14.00,2013-04-26 21:07:00,
2013-04-26 16:12:00,70.5,49.9,30.00,South,188,3.0,11.0,48,0.00,,,0.00,VWS V14.00,2013-04-26 21:12:00,
2013-04-26 16:17:00,71.3,48.9,30.00,South,184,2.0,11.0,45,0.00,,,0.00,VWS V14.00,2013-04-26 21:17:00,
2013-04-26 16:22:00,71.7,48.7,30.00,South,184,2.0,11.0,44,0.00,,,0.00,VWS V14.00,2013-04-26 21:22:00,
2013-04-26 16:27:00,71.8,49.3,30.00,South,184,2.0,11.0,45,0.00,,,0.00,VWS V14.00,2013-04-26 21:27:00,
2013-04-26 16:32:00,72.1,50.8,30.00,South,184,2.0,2.0,47,0.00,,,0.00,VWS V14.00,2013-04-26 21:32:00,
2013-04-26 16:37:00,72.1,51.3,30.00,South,184,2.0,2.0,48,0.00,,,0.00,VWS V14.00,2013-04-26 21:37:00,
2013-04-26 16:42:00,71.6,50.3,30.00,South,184,2.0,2.0,47,0.00,,,0.00,VWS V14.00,2013-04-26 21:42:00,
2013-04-26 16:47:00,70.8,49.6,30.00,South,184,2.0,2.0,47,0.00,,,0.00,VWS V14.00,2013-04-26 21:47:00,
2013-04-26 16:52:00,70.1,50.1,30.00,South,184,2.0,2.0,49,0.00,,,0.00,VWS V14.00,2013-04-26 21:52:00,
2013-04-26 16:57:00,69.9,49.9,30.00,South,184,2.0,2.0,49,0.00,,,0.00,VWS V14.00,2013-04-26 21:57:00,
2013-04-26 17:02:00,69.7,49.7,30.00,South,184,2.0,2.0,49,0.00,,,0.00,VWS V14.00,2013-04-26 22:02:00,
2013-04-26 17:07:00,69.8,49.8,30.00,South,184,2.0,2.0,49,0.00,,,0.00,VWS V14.00,2013-04-26 22:07:00,
2013-04-26 17:12:00,69.8,50.3,30.00,South,184,2.0,2.0,50,0.00,,,0.00,VWS V14.00,2013-04-26 22:12:00,
2013-04-26 17:17:00,69.2,50.3,30.01,South,184,2.0,2.0,51,0.00,,,0.00,VWS V14.00,2013-04-26 22:17:00,
2013-04-26 17:22:00,68.7,50.4,30.01,South,184,2.0,2.0,52,0.00,,,0.00,VWS V14.00,2013-04-26 22:22:00,
2013-04-26 17:27:00,68.5,49.7,30.01,South,184,2.0,2.0,51,0.00,,,0.00,VWS V14.00,2013-04-26 22:27:00,
2013-04-26 17:32:00,68.5,49.7,30.01,South,184,2.0,2.0,51,0.00,,,0.00,VWS V14.00,2013-04-26 22:32:00,
2013-04-26 17:37:00,68.1,49.8,30.01,South,184,2.0,2.0,52,0.00,,,0.00,VWS V14.00,2013-04-26 22:37:00,
2013-04-26 17:42:00,68.1,49.8,30.01,South,184,2.0,2.0,52,0.00,,,0.00,VWS V14.00,2013-04-26 22:42:00,
2013-04-26 17:47:00,68.0,49.7,30.01,South,184,2.0,2.0,52,0.00,,,0.00,VWS V14.00,2013-04-26 22:47:00,
2013-04-26 17:52:00,67.8,50.1,30.01,South,184,2.0,2.0,53,0.00,,,0.00,VWS V14.00,2013-04-26 22:52:00,
2013-04-26 17:57:00,67.8,50.1,30.01,South,184,2.0,2.0,53,0.00,,,0.00,VWS V14.00,2013-04-26 22:57:00,
2013-04-26 18:02:00,67.4,50.7,30.01,South,184,2.0,2.0,55,0.00,,,0.00,VWS V14.00,2013-04-26 23:02:00,
2013-04-26 18:07:00,66.3,51.1,30.02,SSW,202,17.0,24.0,58,0.00,,,0.00,VWS V14.00,2013-04-26 23:07:00,
2013-04-26 18:12:00,65.3,51.1,30.02,SSW,200,15.0,24.0,60,0.00,,,0.00,VWS V14.00,2013-04-26 23:12:00,
2013-04-26 18:17:00,64.9,51.2,30.02,SSW,208,16.0,24.0,61,0.00,,,0.00,VWS V14.00,2013-04-26 23:17:00,
2013-04-26 18:22:00,64.7,51.0,30.02,SSW,211,6.0,24.0,61,0.00,,,0.00,VWS V14.00,2013-04-26 23:22:00,
2013-04-26 18:27:00,64.6,51.3,30.02,SSW,213,11.0,24.0,62,0.00,,,0.00,VWS V14.00,2013-04-26 23:27:00,
2013-04-26 18:32:00,64.4,51.1,30.03,SW,216,13.0,17.0,62,0.00,,,0.00,VWS V14.00,2013-04-26 23:32:00,
2013-04-26 18:37:00,64.2,50.9,30.03,SSW,212,14.0,20.0,62,0.00,,,0.00,VWS V14.00,2013-04-26 23:37:00,
2013-04-26 18:42:00,63.9,51.1,30.02,SSW,209,7.0,20.0,63,0.00,,,0.00,VWS V14.00,2013-04-26 23:42:00,
2013-04-26 18:47:00,63.6,50.8,30.03,South,189,10.0,20.0,63,0.00,,,0.00,VWS V14.00,2013-04-26 23:47:00,
2013-04-26 18:52:00,63.4,51.0,30.03,SSW,194,4.0,20.0,64,0.00,,,0.00,VWS V14.00,2013-04-26 23:52:00,
2013-04-26 19:06:00,63.1,51.2,30.03,SSW,203,9.0,17.0,65,0.00,,,0.00,VWS V14.00,2013-04-27 00:06:00,
2013-04-26 19:11:00,63.0,51.1,30.03,SSW,200,8.0,17.0,65,0.00,,,0.00,VWS V14.00,2013-04-27 00:11:00,
2013-04-26 19:16:00,62.9,51.0,30.03,SSW,199,14.0,17.0,65,0.00,,,0.00,VWS V14.00,2013-04-27 00:16:00,
2013-04-26 19:21:00,62.8,50.9,30.03,SSW,200,4.0,17.0,65,0.00,,,0.00,VWS V14.00,2013-04-27 00:21:00,
2013-04-26 19:26:00,62.7,51.2,30.03,SSW,202,2.0,17.0,66,0.00,,,0.00,VWS V14.00,2013-04-27 00:26:00,
2013-04-26 19:31:00,62.6,51.1,30.03,SW,225,6.0,13.0,66,0.00,,,0.00,VWS V14.00,2013-04-27 00:31:00,
2013-04-26 19:36:00,62.5,51.0,30.04,SSW,203,9.0,13.0,66,0.00,,,0.00,VWS V14.00,2013-04-27 00:36:00,
2013-04-26 19:41:00,62.4,50.9,30.04,SSW,211,3.0,13.0,66,0.00,,,0.00,VWS V14.00,2013-04-27 00:41:00,
2013-04-26 19:46:00,62.3,50.8,30.04,SSW,206,7.0,13.0,66,0.00,,,0.00,VWS V14.00,2013-04-27 00:46:00,
2013-04-26 19:51:00,62.3,50.8,30.04,SSW,206,7.0,13.0,66,0.00,,,0.00,VWS V14.00,2013-04-27 00:51:00,
2013-04-26 19:56:00,62.2,50.7,30.04,SSW,206,7.0,13.0,66,0.00,,,0.00,VWS V14.00,2013-04-27 00:56:00,
2013-04-26 20:01:00,62.0,50.9,30.04,SSW,206,7.0,7.0,67,0.00,,,0.00,VWS V14.00,2013-04-27 01:01:00,
2013-04-26 20:06:00,61.9,50.8,30.04,SSW,206,7.0,7.0,67,0.00,,,0.00,VWS V14.00,2013-04-27 01:06:00,
2013-04-26 20:11:00,61.7,50.6,30.04,SSW,206,7.0,7.0,67,0.00,,,0.00,VWS V14.00,2013-04-27 01:11:00,
2013-04-26 20:16:00,61.6,50.5,30.05,SSW,206,7.0,7.0,67,0.00,,,0.00,VWS V14.00,2013-04-27 01:16:00,
2013-04-26 20:21:00,61.4,50.4,30.05,SSW,206,7.0,7.0,67,0.00,,,0.00,VWS V14.00,2013-04-27 01:21:00,
2013-04-26 20:26:00,61.2,50.6,30.05,SSW,206,7.0,7.0,68,0.00,,,0.00,VWS V14.00,2013-04-27 01:26:00,
2013-04-26 20:31:00,60.9,50.3,30.05,SSW,206,7.0,7.0,68,0.00,,,0.00,VWS V14.00,2013-04-27 01:31:00,
2013-04-26 20:36:00,60.6,50.0,30.05,SSW,206,7.0,7.0,68,0.00,,,0.00,VWS V14.00,2013-04-27 01:36:00,
2013-04-26 20:41:00,60.3,50.1,30.05,SSW,206,7.0,7.0,69,0.00,,,0.00,VWS V14.00,2013-04-27 01:41:00,
2013-04-26 20:46:00,60.0,49.8,30.05,SSW,206,7.0,7.0,69,0.00,,,0.00,VWS V14.00,2013-04-27 01:46:00,
2013-04-26 20:51:00,59.7,49.5,30.06,SSW,206,7.0,7.0,69,0.00,,,0.00,VWS V14.00,2013-04-27 01:51:00,
2013-04-26 20:56:00,59.5,49.3,30.06,SSW,206,7.0,7.0,69,0.00,,,0.00,VWS V14.00,2013-04-27 01:56:00,
2013-04-26 21:01:00,59.1,49.0,30.07,SSW,206,7.0,7.0,69,0.00,,,0.00,VWS V14.00,2013-04-27 02:01:00,
2013-04-26 21:06:00,58.8,49.0,30.07,SSW,206,7.0,7.0,70,0.00,,,0.00,VWS V14.00,2013-04-27 02:06:00,
2013-04-26 21:11:00,58.5,48.8,30.07,SSW,206,7.0,7.0,70,0.00,,,0.00,VWS V14.00,2013-04-27 02:11:00,
2013-04-26 21:17:00,58.1,48.8,30.07,SSW,206,7.0,7.0,71,0.00,,,0.00,VWS V14.00,2013-04-27 02:17:00,
2013-04-26 21:22:00,57.8,48.5,30.07,SSW,206,7.0,7.0,71,0.00,,,0.00,VWS V14.00,2013-04-27 02:22:00,
2013-04-26 21:27:00,57.5,48.6,30.08,SSW,206,7.0,7.0,72,0.00,,,0.00,VWS V14.00,2013-04-27 02:27:00,
2013-04-26 21:32:00,57.2,48.3,30.08,SSW,206,7.0,7.0,72,0.00,,,0.00,VWS V14.00,2013-04-27 02:32:00,
2013-04-26 21:37:00,56.9,48.3,30.08,SSW,206,7.0,7.0,73,0.00,,,0.00,VWS V14.00,2013-04-27 02:37:00,
2013-04-26 21:42:00,56.6,48.1,30.08,SSW,206,7.0,7.0,73,0.00,,,0.00,VWS V14.00,2013-04-27 02:42:00,
2013-04-26 21:47:00,56.3,48.1,30.08,SSW,206,7.0,7.0,74,0.00,,,0.00,VWS V14.00,2013-04-27 02:47:00,
2013-04-26 21:52:00,56.1,48.3,30.09,SSW,206,7.0,7.0,75,0.00,,,0.00,VWS V14.00,2013-04-27 02:52:00,
2013-04-26 21:57:00,55.9,48.1,30.09,SSW,206,7.0,7.0,75,0.00,,,0.00,VWS V14.00,2013-04-27 02:57:00,
2013-04-26 22:02:00,55.6,48.2,30.09,SSW,206,7.0,7.0,76,0.00,,,0.00,VWS V14.00,2013-04-27 03:02:00,
2013-04-26 22:07:00,55.3,47.9,30.10,SSW,206,7.0,7.0,76,0.00,,,0.00,VWS V14.00,2013-04-27 03:07:00,
2013-04-26 22:12:00,55.1,48.0,30.10,SSW,206,7.0,7.0,77,0.00,,,0.00,VWS V14.00,2013-04-27 03:12:00,
2013-04-26 22:17:00,54.9,48.2,30.10,SSW,206,7.0,7.0,78,0.00,,,0.00,VWS V14.00,2013-04-27 03:17:00,
2013-04-26 22:22:00,54.6,47.9,30.10,SSW,206,7.0,7.0,78,0.00,,,0.00,VWS V14.00,2013-04-27 03:22:00,
2013-04-26 22:27:00,54.4,47.7,30.11,SSW,206,7.0,7.0,78,0.00,,,0.00,VWS V14.00,2013-04-27 03:27:00,
2013-04-26 22:32:00,54.2,47.8,30.11,SSW,206,7.0,7.0,79,0.00,,,0.00,VWS V14.00,2013-04-27 03:32:00,
2013-04-26 22:37:00,54.1,47.7,30.11,SSW,206,7.0,7.0,79,0.00,,,0.00,VWS V14.00,2013-04-27 03:37:00,
2013-04-26 22:42:00,53.9,47.9,30.11,SSW,206,7.0,7.0,80,0.00,,,0.00,VWS V14.00,2013-04-27 03:42:00,
2013-04-26 22:47:00,53.6,47.6,30.11,SSW,206,7.0,7.0,80,0.00,,,0.00,VWS V14.00,2013-04-27 03:47:00,
2013-04-26 22:52:00,53.4,47.7,30.11,SSW,206,7.0,7.0,81,0.00,,,0.00,VWS V14.00,2013-04-27 03:52:00,
2013-04-26 22:57:00,53.2,47.5,30.11,SSW,206,7.0,7.0,81,0.00,,,0.00,VWS V14.00,2013-04-27 03:57:00,
2013-04-26 23:01:00,53.0,47.7,30.11,SSW,206,7.0,7.0,82,0.00,,,0.00,VWS V14.00,2013-04-27 04:01:00,
2013-04-26 23:03:00,52.9,47.6,30.11,SSW,206,7.0,7.0,82,0.00,,,0.00,VWS V14.00,2013-04-27 04:03:00,
2013-04-26 23:07:00,52.8,47.5,30.11,SSW,206,7.0,7.0,82,0.00,,,0.00,VWS V14.00,2013-04-27 04:07:00,
2013-04-26 23:11:00,52.7,47.7,30.11,SSW,206,7.0,7.0,83,0.00,,,0.00,VWS V14.00,2013-04-27 04:11:00,
2013-04-26 23:16:00,52.5,47.5,30.11,SSW,206,7.0,7.0,83,0.00,,,0.00,VWS V14.00,2013-04-27 04:16:00,
2013-04-26 23:21:00,52.3,47.3,30.11,SSW,206,7.0,7.0,83,0.00,,,0.00,VWS V14.00,2013-04-27 04:21:00,
2013-04-26 23:26:00,52.2,47.5,30.11,SSW,206,7.0,7.0,84,0.00,,,0.00,VWS V14.00,2013-04-27 04:26:00,
2013-04-26 23:31:00,52.0,47.3,30.11,SSW,206,7.0,7.0,84,0.00,,,0.00,VWS V14.00,2013-04-27 04:31:00,
2013-04-26 23:36:00,51.9,47.2,30.11,SSW,206,7.0,7.0,84,0.00,,,0.00,VWS V14.00,2013-04-27 04:36:00,
2013-04-26 23:41:00,51.7,47.3,30.11,SSW,206,7.0,7.0,85,0.00,,,0.00,VWS V14.00,2013-04-27 04:41:00,
2013-04-26 23:46:00,51.6,47.2,30.11,SSW,206,7.0,7.0,85,0.00,,,0.00,VWS V14.00,2013-04-27 04:46:00,
2013-04-26 23:51:00,51.5,47.2,30.11,SSW,206,7.0,7.0,85,0.00,,,0.00,VWS V14.00,2013-04-27 04:51:00,
2013-04-26 23:56:00,51.4,47.0,30.11,SSW,206,7.0,7.0,85,0.00,,,0.00,VWS V14.00,2013-04-27 04:56:00,